Weather in Ploty

Poland     53°48′16″N   15°15′55″E
temp.,
°C
wind,
m/s
gust,
m/s
humid.,
%
clouds,
%
prec.,
mm/h
press.,
hPa
HPBL,
m
15 april, thu
thu1523:00+1n3684100 0.0 1028132
02:00+1n3886100 0.0 1027248
05:00+2n41083100 0.0 1027459
08:00+3nne61069100 0.0 1028813
11:00+5nne81155100 0.0 10271078
14:00+6n9115293 0.0 10271153
17:00+5n81264100 0.0 10261071
20:00+4nne7137899 0.0 1025706
16 april, fri
fri1623:00+4nne7137699 0.0 1025593
02:00+3nne6128193 0.0 1024506
05:00+3nne5128997 0.0 1024448
08:00+4nne61180100 0.0 1024622
11:00+6nne7966100 0.0 1024856
14:00+7nne8961100 0.0 1024966
17:00+6nne797294 0.0 1023791
20:00+4nne5108899 0.0 1024559
17 april, sat
sat1723:00+4nne4894100 0.3 1023485
02:00+4nne4797100 0.7 1023373
05:00+4nne3698100 0.2 1023305
08:00+5nne3595100 0.2 1023237
11:00+7nne3488100 0.0 1023401
14:00+8n4690100 0.0 1022401
17:00+7n4595100 0.4 1021320
20:00+6nne2497100 0.5 1022192
18 april, sun
sun1823:00+5ne229836 0.0 102244
02:00+5ne349691 0.0 102179
05:00+6nne2598100 0.3 1021150
08:00+7ene249463 0.5 1020208
11:00+10ese3572100 0.1 1021865
14:00+8se468490 0.3 1021298
17:00+11se4572100 0.5 1020791
20:00+8ese3384100 0.6 102136
19 april, mon
mon1923:00+7ese2291100 0.0 102133
02:00+7ese2289100 0.0 102120
05:00+6e229194 0.3 102135
08:00+9e2382100 0.4 1020130
11:00+12ene4562100 0.0 1019892
14:00+13se4562100 0.1 10181097
17:00+10ne4787100 0.9 1017259
20:00+9e3792100 1.8 1016331